DELTA 4 R/B, 40535

Orbit data source: Space-Track

DELTA 4 R/B, 40535 is space debris in MEO originally from a launch on Wed, 25 Mar 2015 UTC launched from the Air Force Eastern Test Range (AFETR). Debris objects in space refer to the collection of defunct objects orbiting the Earth. Examples of debris include non-operational satellites, rocket bodies, and fragments generated from explosions, collisions, or faulty payload assembly.

Loading next visibility...
DELTA 4 R/B details
Identifier
40535, 2015-013B
Orbit
MEO
Last TLE update23 hours ago
Origin
Flag of USULA (US)
ManufacturerULA Decatur
Mission2))"
Bus & MotorDCSS-4, RL10B-2
Mass2,850 kg wet, 2,850 kg dry
Launch date (UTC)
2015-03-25 (10 years ago)
Launch vehicleUnknown
Launch site
Air Force Eastern Test Range (AFETR)
Object type
Payload
Rocket body
Debris
Shape & HBRCyl + 1 Nozzle, Unknown HBR
Radar Cross Section43.982 m², Large (>1 m²)

Expand to show TLE details & history

TLE from 23 hours ago
0 DELTA 4 R/B
1 40535U 15013B   24360.57557232  .00000044  00000-0  00000-0 0  9996
2 40535  52.8156 236.8836 0034370  57.9630 302.4520  1.92974790 68760
Epoch: 2024-12-25T13:48Z
Definitive object data (Epoch: 2024-12-25T13:48:49.448Z)
Latitude-0.00004°
Longitude-64.87975°
Altitude20,824.245 km
Speed3.832 km/s
True Right ascension15h 47m 34s
True Declination0° 00' 00"
Sunlit
Object was in daylight at TLE epoch
Visualization TLE readout
Latitude-39.10741°
Longitude-102.91155°
Altitude20,919.23 km
Speed3.819 km/s
Apparent Right ascension13h 33m 20s
Apparent Declination-52° 10' 28"
Sunlit
Object is in daylight
Visualization observer readout
Local Sidereal Time12:14:29
Azimuth168.038° S
Elevation-3.672°
Doppler factor1
Orbital elements
Apogee altitude20,967.816 km
Perigee altitude20,780.484 km
Semi-major axis27,252.287 km
Eccentricity0.003437
Inclination52.8156°
RAAN236.8836°
Arg. of periapsis57.963°
True anomaly302.11889°
Mean anomaly302.452°
Eccentric anomaly302.28552°
Mean motion0.48243 °/min
BSTARUnknown
Orbital period746.21 mins
Loading maneuver chart data...
Loading historical data...
Loading historical data...
Loading historical data...
Loading historical data...
Loading historical data...
Loading historical data...
Loading historical data...

DELTA 4 R/B Visibility forecast

Observer location: undefined°, undefined

Span
Click to sort rows by Start time (UTC) header in descending order
Start Az.
Max El. time (UTC)
Max El. Az.
Max El.
End time (UTC)
End Az.
302 mins2024-12-26 13:39:54.232Z157.454° SSE2024-12-26 16:11:54.232Z92.493° ESE39.228°2024-12-26 18:41:54.232Z49.854° ENE
93 mins2024-12-27 06:45:54.232Z316.244° NNW2024-12-27 07:30:54.232Z299.513° NW13.624°2024-12-27 08:18:54.232Z280.594° WNW
|